Change the Weather History Date:

Thursday, January 17, 2013

  Actual Average (KVPZ) Record (KVPZ)
Temperature  
Mean Temperature 30 °F 23 °F  
Max Temperature 33 °F 31 °F 55 °F (1999)
Min Temperature 23 °F 16 °F -4 °F (2009)
Degree Days  
Heating Degree Days 36 42  
Month to date heating degree days 705  
Since 1 July heating degree days 3107  
Cooling Degree Days 0 0  
Month to date cooling degree days 0  
Year to date cooling degree days 0  
Moisture  
Dew Point 18 °F    
Average Humidity 62    
Maximum Humidity 93    
Minimum Humidity 47    
Precipitation  
Precipitation 0.00 in 0.06 in 0.28 in (2012)
Month to date precipitation 0.92  
Year to date precipitation 0.92  
Sea Level Pressure  
Sea Level Pressure 30.25 in    
Wind  
Wind Speed 7 mph (NW)    
Max Wind Speed 14 mph    
Max Gust Speed 24 mph    
Visibility 10 miles    
Events      
T = Trace of Precipitation, MM = Missing Value Source: NWS Daily Summary

Daily Weather History Graph

Daily Weather History Graph

Search for Another Location

Airport or City:

Trip Planner

Search our weather history database for the weather conditions in past years. The results will help you decide how hot, cold, wet, or windy it might be!

Date:

Astronomy

Jan. 17, 2013 Rise Set
Actual Time 7:10 AM CST 4:44 PM CST
Civil Twilight 6:40 AM CST 5:15 PM CST
Nautical Twilight 6:06 AM CST 5:49 PM CST
Astronomical Twilight 5:32 AM CST 6:22 PM CST
Moon 10:11 AM CST (1/17) 11:42 PM CST (1/17)
Length of Visible Light 10h 34m
Length of Day
9h 33m
Waxing Crescent, 38% of the Moon is Illuminated
Jan 17
Waxing Crescent
Jan 18
First Quarter
Jan 26
Full
Feb 3
Last Quarter
Feb 10
New

Hourly Weather History & Observations

Time (CST) Temp. Windchill Dew Point Humidity Pressure Visibility Wind Dir Wind Speed Gust Speed Precip Events Conditions
12:15 AM 33.8 °F 30.8 °F 26.6 °F 75% 30.05 in 10.0 mi SW 3.5 mph - N/A   Overcast
12:35 AM 32.0 °F 27.5 °F 26.6 °F 80% 30.06 in 10.0 mi SW 4.6 mph - N/A   Overcast
12:55 AM 32.0 °F 27.5 °F 26.6 °F 80% 30.07 in 10.0 mi WSW 4.6 mph - N/A   Overcast
1:15 AM 32.0 °F 28.7 °F 26.6 °F 80% 30.08 in 10.0 mi SW 3.5 mph - N/A   Overcast
1:35 AM 32.0 °F 27.5 °F 26.6 °F 80% 30.09 in 10.0 mi SSW 4.6 mph - N/A   Overcast
1:55 AM 32.0 °F 27.5 °F 28.4 °F 87% 30.09 in 10.0 mi WSW 4.6 mph - N/A   Overcast
2:15 AM 32.0 °F 28.7 °F 28.4 °F 87% 30.10 in 10.0 mi West 3.5 mph - N/A   Overcast
2:35 AM 33.8 °F 29.6 °F 28.4 °F 81% 30.11 in 10.0 mi West 4.6 mph - N/A   Overcast
2:55 AM 33.8 °F 29.6 °F 30.2 °F 87% 30.11 in 10.0 mi WSW 4.6 mph - N/A   Overcast
3:15 AM 32.0 °F 28.7 °F 28.4 °F 87% 30.12 in 10.0 mi WSW 3.5 mph - N/A   Overcast
3:35 AM 32.0 °F - 30.2 °F 93% 30.13 in 10.0 mi Calm Calm - N/A   Overcast
3:55 AM 33.8 °F 29.6 °F 30.2 °F 87% 30.13 in 10.0 mi NW 4.6 mph - N/A   Overcast
4:15 AM 33.8 °F 27.7 °F 28.4 °F 81% 30.14 in 10.0 mi NNW 6.9 mph 16.1 mph N/A   Overcast
4:35 AM 33.8 °F 27.7 °F 26.6 °F 75% 30.15 in 10.0 mi NNW 6.9 mph - N/A   Overcast
4:55 AM 33.8 °F 26.4 °F 26.6 °F 75% 30.15 in 10.0 mi NNW 9.2 mph - N/A   Overcast
5:15 AM 32.0 °F 25.6 °F 24.8 °F 75% 30.17 in 10.0 mi NW 6.9 mph - N/A   Scattered Clouds
5:35 AM 32.0 °F 26.4 °F 23.0 °F 69% 30.19 in 10.0 mi NNW 5.8 mph - N/A   Clear
5:55 AM 32.0 °F 25.6 °F 23.0 °F 69% 30.20 in 10.0 mi NNW 6.9 mph - N/A   Clear
6:15 AM 32.0 °F 25.6 °F 21.2 °F 64% 30.21 in 10.0 mi NNW 6.9 mph - N/A   Scattered Clouds
6:35 AM 32.0 °F 24.8 °F 21.2 °F 64% 30.21 in 10.0 mi NNW 8.1 mph - N/A   Clear
6:55 AM 30.2 °F 23.4 °F 21.2 °F 69% 30.21 in 10.0 mi NNW 6.9 mph - N/A   Clear
7:15 AM 30.2 °F 23.4 °F 19.4 °F 64% 30.22 in 10.0 mi NNW 6.9 mph - N/A   Clear
7:35 AM 30.2 °F 25.4 °F 19.4 °F 64% 30.23 in 10.0 mi NW 4.6 mph - N/A   Clear
7:55 AM 32.0 °F 25.6 °F 19.4 °F 60% 30.24 in 10.0 mi NNW 6.9 mph - N/A   Clear
8:15 AM 32.0 °F 24.2 °F 19.4 °F 60% 30.25 in 10.0 mi NW 9.2 mph - N/A   Clear
8:35 AM 32.0 °F 24.2 °F 19.4 °F 60% 30.26 in 10.0 mi NW 9.2 mph 18.4 mph N/A   Clear
8:55 AM 32.0 °F 24.2 °F 19.4 °F 60% 30.27 in 10.0 mi NW 9.2 mph 17.3 mph N/A   Clear
9:15 AM 32.0 °F 22.5 °F 19.4 °F 60% 30.28 in 10.0 mi NNW 12.7 mph 19.6 mph N/A   Clear
9:55 AM 32.0 °F 22.5 °F 15.8 °F 51% 30.29 in 10.0 mi NNW 12.7 mph - N/A   Clear
10:15 AM 30.2 °F 21.9 °F 15.8 °F 55% 30.29 in 10.0 mi NW 9.2 mph 17.3 mph N/A   Clear
10:35 AM 30.2 °F 22.6 °F 15.8 °F 55% 30.29 in 10.0 mi NNW 8.1 mph 16.1 mph N/A   Clear
10:55 AM 32.0 °F 23.0 °F 14.0 °F 48% 30.28 in 10.0 mi NNW 11.5 mph 19.6 mph N/A   Clear
11:15 AM 32.0 °F 23.6 °F 14.0 °F 48% 30.28 in 10.0 mi NNW 10.4 mph 18.4 mph N/A   Clear
11:35 AM 30.2 °F 20.2 °F 15.8 °F 55% 30.28 in 10.0 mi NNW 12.7 mph 20.7 mph N/A   Clear
11:55 AM 32.0 °F 22.5 °F 14.0 °F 48% 30.28 in 10.0 mi NNW 12.7 mph 21.9 mph N/A   Clear
12:15 PM 30.2 °F 19.8 °F 14.0 °F 51% 30.28 in 10.0 mi North 13.8 mph 19.6 mph N/A   Clear
12:35 PM 30.2 °F 19.8 °F 14.0 °F 51% 30.28 in 10.0 mi NW 13.8 mph 24.2 mph N/A   Clear
12:55 PM 30.2 °F 21.3 °F 14.0 °F 51% 30.28 in 10.0 mi NW 10.4 mph 19.6 mph N/A   Clear
1:15 PM 30.2 °F 19.8 °F 14.0 °F 51% 30.28 in 10.0 mi NW 13.8 mph 19.6 mph N/A   Clear
1:35 PM 30.2 °F 20.8 °F 14.0 °F 51% 30.28 in 10.0 mi NW 11.5 mph 20.7 mph N/A   Clear
1:55 PM 30.2 °F 20.8 °F 14.0 °F 51% 30.29 in 10.0 mi NW 11.5 mph 23.0 mph N/A   Clear
2:15 PM 30.2 °F 20.8 °F 14.0 °F 51% 30.29 in 10.0 mi NW 11.5 mph 21.9 mph N/A   Scattered Clouds
2:35 PM 28.4 °F 17.5 °F 14.0 °F 55% 30.30 in 10.0 mi NNW 13.8 mph 23.0 mph N/A   Mostly Cloudy
2:55 PM 28.4 °F 17.5 °F 14.0 °F 55% 30.30 in 10.0 mi NNW 13.8 mph 21.9 mph N/A   Scattered Clouds
3:15 PM 28.4 °F 19.1 °F 12.2 °F 51% 30.30 in 10.0 mi NNW 10.4 mph 24.2 mph N/A   Scattered Clouds
3:55 PM 28.4 °F 18.0 °F 10.4 °F 47% 30.33 in 10.0 mi NNW 12.7 mph 24.2 mph N/A   Scattered Clouds
4:35 PM 26.6 °F 18.2 °F 10.4 °F 51% 30.33 in 10.0 mi NW 8.1 mph - N/A   Scattered Clouds
4:55 PM 26.6 °F 20.0 °F 12.2 °F 55% 30.33 in 10.0 mi NNW 5.8 mph - N/A   Scattered Clouds
5:15 PM 26.6 °F 21.2 °F 12.2 °F 55% 30.34 in 10.0 mi NW 4.6 mph - N/A   Scattered Clouds
5:35 PM 26.6 °F 20.0 °F 12.2 °F 55% 30.34 in 10.0 mi NW 5.8 mph - N/A   Scattered Clouds
5:55 PM 26.6 °F 19.1 °F 12.2 °F 55% 30.34 in 10.0 mi NNW 6.9 mph - N/A   Mostly Cloudy
6:15 PM 26.6 °F 21.2 °F 12.2 °F 55% 30.34 in 10.0 mi NNW 4.6 mph - N/A   Scattered Clouds
6:35 PM 26.6 °F 18.2 °F 12.2 °F 55% 30.35 in 10.0 mi NW 8.1 mph - N/A   Mostly Cloudy
6:55 PM 28.4 °F 22.2 °F 12.2 °F 51% 30.36 in 10.0 mi NW 5.8 mph - N/A   Mostly Cloudy
7:15 PM 28.4 °F 21.2 °F 12.2 °F 51% 30.36 in 10.0 mi NW 6.9 mph 16.1 mph N/A   Mostly Cloudy
7:35 PM 28.4 °F 20.4 °F 12.2 °F 51% 30.37 in 10.0 mi NW 8.1 mph - N/A   Mostly Cloudy
8:15 PM 28.4 °F 22.2 °F 12.2 °F 51% 30.36 in 10.0 mi WNW 5.8 mph - N/A   Mostly Cloudy
8:35 PM 26.6 °F 18.2 °F 12.2 °F 55% 30.36 in 10.0 mi WNW 8.1 mph - N/A   Mostly Cloudy
8:55 PM 26.6 °F 18.2 °F 12.2 °F 55% 30.38 in 10.0 mi WNW 8.1 mph - N/A   Scattered Clouds
9:15 PM 26.6 °F 18.2 °F 12.2 °F 55% 30.38 in 10.0 mi WNW 8.1 mph - N/A   Mostly Cloudy
9:35 PM 26.6 °F 18.2 °F 12.2 °F 55% 30.39 in 10.0 mi WNW 8.1 mph - N/A   Mostly Cloudy
9:55 PM 26.6 °F 19.1 °F 12.2 °F 55% 30.38 in 10.0 mi West 6.9 mph - N/A   Scattered Clouds
11:15 PM 26.6 °F 20.0 °F 12.2 °F 55% 30.38 in 10.0 mi West 5.8 mph - N/A   Scattered Clouds
11:35 PM 26.6 °F 21.2 °F 12.2 °F 55% 30.38 in 10.0 mi West 4.6 mph - N/A   Mostly Cloudy
11:55 PM 23.0 °F 15.8 °F 12.2 °F 63% 30.38 in 10.0 mi SSW 5.8 mph - N/A   Mostly Cloudy